FENGYUN 1C DEB

Satellite information

Favourite Embed

Satellite Type and Status

DEBRISIN ORBIT

Key statistics

Satellite FENGYUN 1C DEB at a glance.

Uptime

9495

Days in orbit

Revolutions

≈ 14.3

Per day

Orbit

SSO

Sun Synchronous Orbit

Inclination

99.1

Latest

Satellite identification and parameters

Extended collection of information and parameters for FENGYUN 1C DEB.

Object identification

Identified? True

Debris? True

Object name: FENGYUN 1C DEB

International designator: 1999-025BRC

Object number (NORAD): 31348

Object ID (CCSDS): 31348

Country: PEOPLES REPUBLIC OF CHINA (PRC)

Current information (Y/N): Y

RCS size: SMALL

Orbital parameters

Period: 100.537 minutes

Inclination: 99.098 deg

SMA: 7162.157 km

Apoapsis: 809.163 km

Periapsis: 758.882 km

RAAN: 67.0973 deg

Eccentricy: 0.0035102

Argument of periapsis: 349.4406 deg

Mean anomaly: 166.3035 deg

Mean motion: 14.32309876 rev/day

Mean motion (dot): 0.00004246 rev/day2

B* drag term: 0.0015789 1/REarth

Two-line elements (TLE)

Creation date: May 8, 2025, 3:01 a.m.

Reference frame: TEME

Reference center: EARTH

Epoch: May 7, 2025, 7 a.m. UTC

TLE line 0: 0 FENGYUN 1C DEB

TLE line 1: 1 31348U 99025BRC 25127.29174306 .00004246 00000-0 15789-2 0 9991

TLE line 2: 2 31348 99.0980 67.0973 0035102 349.4406 166.3035 14.32309876931065

Live tracking on map

Real-time ground track for satellite FENGYUN 1C DEB.

In-orbit conjunctions

A list of the most updated potential collisions computed for object FENGYUN 1C DEB.

Target Orbit TCA Probability of collision Miss distance Type
FENGYUN 1C DEB SSO 2024-11-15 11:19:01 0.0005930294 209.0 (m) DEBRIS
DMSP 5D-2 F13 DEB SSO 2024-09-27 07:03:39 0.0004395506 590.0 (m) DEBRIS

Associated space launch

Chinese polar orbiting meteorological satellite

FENGYUN 1C DEB was lifted into orbit during the mission ‘Long March 4B | Feng Yun 1C’, on board a Long March 4B space rocket.

The launch took place on May 10, 1999, 1:33 a.m. from Launch Complex 7.

For more information about the launch, click the button.

Launch to space Long March 4B | Feng Yun 1C
Long March 4B | Feng Yun 1C

Agency: N/A

Status: Launch Successful

Launch date: May 10, 1999, 1:33 a.m. UTC

Rocket: Long March 4B

Launch pad: Launch Complex 7

Location: Taiyuan Satellite Launch Center, People's Republic of China

...

Latest news about this satellite

There are no fresh news available about this satellite. Check back as we update our databases every day.


Newsletter sign-up

Weekly statistics, charts and insights to help you stay on top of the space industry.